Location: Unspecified
(0.0000°N, 0.0000°E)
Time: 12:55:44
(UTC+00:00)

ISS - Pass Details

Date: 26 May 2018
Orbit: 402 x 407 km, 51.6° (Epoch: 22 May)

Event Time Altitude Azimuth Distance (km) Brightness Sun altitude
Exits shadow 04:16:42 14° 139° (SE) 1,224 -1.2 -23.3°
Drops below altitude 10° 04:17:16 10° 140° (SE) 1,451 -0.8 -23.2°
Sets 04:19:21 0° 142° (SE) 2,313 0.2 -22.7°
